Location: Le Domaine
(47.0333°N, 76.5361°W)
Time: 05:11:29
(UTC-05:00)

Explorer 11/Cluster Stage 4 - Pass Details

Date: 21 November 2019
Orbit: 467 x 1259 km, 28.8° (Epoch: 09 December)

Event Time Altitude Azimuth Distance (km) Brightness Sun altitude
Rises 21:22:22 0° 236° (SW) 3,302 - -49.4°
Reaches altitude 10° 21:26:04 10° 211° (SSW) 2,553 - -49.9°
Maximum altitude 21:29:02 14° 182° (S) 2,422 - -50.4°
Drops below altitude 10° 21:32:15 10° 154° (SSE) 2,827 - -50.9°
Sets 21:36:47 0° 131° (SE) 3,949 - -51.5°
